Location: Fours
(44.3167°N, 6.7000°E)
Time: 14:21:21
(UTC+00:00)

X-37B - Pass Details

Date: 07 December 2021
Orbit: 334 x 337 km, 45.0° (Epoch: 11 January)

Event Time Altitude Azimuth Distance (km) Brightness Sun altitude
Rises 17:12:53 0° 221° (SW) 2,093 5.4 -13.6°
Reaches altitude 10° 17:15:06 10° 206° (SSW) 1,260 3.8 -14.0°
Maximum altitude 17:17:24 22° 151° (SSE) 781 2.0 -14.4°
Enters shadow 17:18:04 21° 129° (SE) 832 1.9 -14.5°
